Location: Newark
(15.4608°S, 41.1635°W)
Time: 19:51:12
(UTC+00:00)

Tiros 1 - All Passes

Search period start: 04 March 2021 00:00
Search period end: 14 March 2021 00:00
Orbit: 630 x 664 km, 48.4° (Epoch: 03 March)

Date Brightness Start Highest point End Pass type
(mag) Time Alt. Az. Time Alt. Az. Time Alt. Az.
04 Mar - 00:26:53 10° S 00:29:27 14° SE 00:32:02 10° ESE night (unlit)
04 Mar - 02:07:09 10° SW 02:11:46 57° NW 02:16:23 10° NNE night (unlit)
04 Mar - 14:28:12 10° N 14:31:39 20° NE 14:35:06 10° E daylight
04 Mar - 16:09:20 10° WNW 16:13:37 35° SW 16:17:54 10° SSE daylight
05 Mar - 00:51:15 10° SSW 00:55:38 39° SE 01:00:02 10° ENE night (unlit)
05 Mar - 02:34:24 10° W 02:37:35 18° NW 02:40:46 10° N night (unlit)
05 Mar - 14:52:49 10° NNW 14:57:29 65° NE 15:02:07 10° SE daylight
05 Mar - 16:37:41 10° WSW 16:39:50 13° SW 16:41:59 10° SSW daylight
05 Mar - 23:37:04 10° SSE 23:39:13 13° SE 23:41:22 10° ESE visible
06 Mar - 01:16:56 10° SW 01:21:35 65° NW 01:26:14 10° NNE night (unlit)
06 Mar - 13:38:17 10° N 13:41:29 18° NE 13:44:40 10° E daylight
06 Mar - 15:19:02 10° WNW 15:23:26 39° SW 15:27:49 10° SSE daylight
07 Mar - 00:01:10 10° SSW 00:05:26 35° SE 00:09:42 10° ENE visible
07 Mar - 01:43:58 10° W 01:47:24 20° NW 01:50:52 10° N night (unlit)
07 Mar - 14:02:40 10° NNW 14:07:17 57° NE 14:11:54 10° SE daylight
07 Mar - 15:47:02 10° WSW 15:49:37 14° SW 15:52:10 10° S daylight
07 Mar - 22:47:24 10° SSE 22:48:59 12° SE 22:50:35 10° ESE visible
08 Mar - 00:26:45 10° SW 00:31:24 74° NW 00:36:04 10° NE visible
08 Mar - 12:48:25 10° NNE 12:51:18 16° NE 12:54:11 10° E daylight
08 Mar - 14:28:44 10° WNW 14:33:13 44° SW 14:37:43 10° SSE daylight
08 Mar - 23:11:06 10° SSW 23:15:14 31° SE 23:19:22 10° ENE visible
09 Mar - 00:53:34 10° WSW 00:57:14 23° NW 01:00:54 10° N night (unlit)
09 Mar - 13:12:32 10° NNW 13:17:07 50° NE 13:21:40 10° SE daylight
09 Mar - 14:56:27 10° W 14:59:23 16° SW 15:02:18 10° S daylight
09 Mar - 21:58:10 10° SSE 21:58:45 10° SE 21:59:20 10° SE visible
09 Mar - 23:36:34 10° SW 23:41:13 84° NW 23:45:53 10° NE visible
10 Mar - 11:58:37 10° NNE 12:01:07 14° NE 12:03:37 10° E daylight
10 Mar - 13:38:26 10° WNW 13:43:02 50° SW 13:47:36 10° SSE daylight
10 Mar - 22:21:03 10° SSW 22:25:02 28° SE 22:29:01 10° ENE visible
11 Mar - 00:03:13 10° WSW 00:07:04 26° NW 00:10:55 10° N visible
11 Mar - 12:22:25 10° NNW 12:26:56 44° NE 12:31:25 10° ESE daylight
11 Mar - 14:05:55 10° W 14:09:09 18° SW 14:12:22 10° S daylight
11 Mar - 22:46:23 10° SW 22:51:03 86° SE 22:55:42 10° NE visible
12 Mar - 11:08:57 10° NNE 11:10:56 12° NE 11:12:57 10° ENE daylight
12 Mar - 12:48:10 10° NW 12:52:50 57° SW 12:57:28 10° SSE daylight
12 Mar - 21:31:00 10° S 21:34:49 25° SE 21:38:38 10° E visible
12 Mar - 23:12:53 10° WSW 23:16:54 29° NW 23:20:54 10° N visible
13 Mar - 11:32:19 10° NNW 11:36:45 39° NE 11:41:09 10° ESE daylight
13 Mar - 13:15:26 10° W 13:18:55 20° SW 13:22:24 10° S daylight
13 Mar - 21:56:13 10° SW 22:00:52 76° SE 22:05:29 10° NE visible
